Location: Anjeux
(47.8815°N, 6.2076°E)
Time: 21:42:57
(UTC+00:00)

X-37B - Pass Details

Date: 27 September 2021
Orbit: 385 x 389 km, 45.0° (Epoch: 17 October)

Event Time Altitude Azimuth Distance (km) Brightness Sun altitude
Exits shadow 04:54:07 - 261° (W) 1,502 2.9 -6.6°
Reaches altitude 10° 04:54:21 10° 260° (W) 1,414 2.7 -6.6°
Maximum altitude 04:57:26 49° 185° (S) 510 1.1 -6.1°
Drops below altitude 10° 05:00:31 10° 109° (ESE) 1,415 4.7 -5.6°
Sets 05:02:38 0° 104° (ESE) 2,270 6.2 -5.2°
